Location: Cabeza Gorda
(40.0667°N, 4.9667°W)
Time: 20:16:56
(UTC+00:00)

Cosmos 407 Rocket - Pass Details

Date: 15 January 2026
Orbit: 738 x 782 km, 74.0° (Epoch: 11 February)

Event Time Altitude Azimuth Distance (km) Brightness Sun altitude
Rises 07:08:50 0° 211° (SSW) 3,163 6.6 -6.3°
Reaches altitude 10° 07:11:13 10° 216° (SW) 2,247 5.8 -5.8°
Maximum altitude 07:16:11 52° 293° (WNW) 926 3.6 -5.0°
Drops below altitude 10° 07:21:14 10° 9° (N) 2,285 5.8 -4.1°
Sets 07:23:41 0° 15° (NNE) 3,221 6.6 -3.7°
